Change the Weather History Date:

Wednesday, October 23, 2013

  Actual Average Record
Temperature  
Mean Temperature 37 °F 49 °F  
Max Temperature 45 °F 60 °F 83 °F (1963)
Min Temperature 28 °F 39 °F 20 °F (1981)
Degree Days  
Heating Degree Days 28 16  
Month to date heating degree days 255 282  
Since 1 July heating degree days 337 413  
Cooling Degree Days 0 0  
Month to date cooling degree days 16 8  
Year to date cooling degree days 890 819  
Moisture  
Dew Point 27 °F    
Average Humidity 73    
Maximum Humidity 92    
Minimum Humidity 53    
Precipitation  
Precipitation T in 0.08 in 1.71 in (2010)
Month to date precipitation 1.81 1.98  
Year to date precipitation 35.42 30.99  
Snow  
Snow T in 0.00 in 5.00 in (1929)
Month to date snowfall T 0.0  
Since 1 July snowfall T 0.0  
Since 1 September snowfall T 0.0  
Snow Depth 0.00 in    
Sea Level Pressure  
Sea Level Pressure 30.03 in    
Wind  
Wind Speed 7 mph (WNW)    
Max Wind Speed 17 mph    
Max Gust Speed 21 mph    
Visibility 10 miles    
Events      
T = Trace of Precipitation, MM = Missing Value Source: NWS Daily Summary

Daily Weather History Graph

Daily Weather History Graph

Search for Another Location

Airport or City:

Trip Planner

Search our weather history database for the weather conditions in past years. The results will help you decide how hot, cold, wet, or windy it might be!

Date:

Astronomy

Oct. 23, 2013 Rise Set
Actual Time 7:18 AM CDT 6:01 PM CDT
Civil Twilight 6:50 AM CDT 6:30 PM CDT
Nautical Twilight 6:17 AM CDT 7:03 PM CDT
Astronomical Twilight 5:44 AM CDT 7:35 PM CDT
Moon 9:30 PM CDT (10/23) 11:38 AM CDT (10/23)
Length of Visible Light 11h 40m
Length of Day
10h 43m
Waning Gibbous, 79% of the Moon is Illuminated
Oct 23
Waning Gibbous
Oct 26
Last Quarter
Nov 3
New
Nov 9
First Quarter
Nov 17
Full

Hourly Weather History & Observations

Time (CDT) Temp. Windchill Dew Point Humidity Pressure Visibility Wind Dir Wind Speed Gust Speed Precip Events Conditions
12:54 AM 30.0 °F 23.2 °F 27.0 °F 88% 29.99 in 10.0 mi NNW 6.9 mph - N/A   Clear
1:54 AM 30.9 °F 24.3 °F 27.0 °F 85% 29.99 in 10.0 mi NNW 6.9 mph - N/A   Clear
2:54 AM 30.0 °F 23.2 °F 27.0 °F 88% 29.99 in 10.0 mi NNW 6.9 mph - N/A   Mostly Cloudy
3:54 AM 30.9 °F 26.2 °F 28.0 °F 89% 29.98 in 10.0 mi NNW 4.6 mph - N/A   Overcast
4:54 AM 32.0 °F 25.6 °F 28.0 °F 85% 29.99 in 10.0 mi NNW 6.9 mph - N/A   Overcast
5:54 AM 30.9 °F 25.2 °F 27.0 °F 85% 30.01 in 10.0 mi NW 5.8 mph - N/A   Mostly Cloudy
6:54 AM 28.9 °F - 26.1 °F 89% 30.02 in 10.0 mi Calm Calm - N/A   Partly Cloudy
7:54 AM 28.9 °F - 26.1 °F 89% 30.04 in 10.0 mi Calm Calm - N/A   Partly Cloudy
8:54 AM 34.0 °F 31.0 °F 28.0 °F 79% 30.06 in 10.0 mi NW 3.5 mph - N/A   Partly Cloudy
9:54 AM 37.9 °F 33.5 °F 28.9 °F 70% 30.05 in 10.0 mi NW 5.8 mph - N/A   Mostly Cloudy
10:54 AM 39.0 °F 34.0 °F 28.0 °F 65% 30.06 in 10.0 mi NW 6.9 mph - N/A   Overcast
11:54 AM 44.1 °F 38.6 °F 30.0 °F 58% 30.05 in 10.0 mi WNW 10.4 mph 17.3 mph N/A   Mostly Cloudy
12:01 PM 42.8 °F 36.2 °F 28.4 °F 57% 30.03 in 10.0 mi WNW 12.7 mph 18.4 mph N/A   Mostly Cloudy
12:54 PM 44.1 °F 37.4 °F 28.0 °F 53% 30.04 in 10.0 mi West 13.8 mph 20.7 mph N/A   Mostly Cloudy
1:54 PM 43.0 °F 36.8 °F 26.1 °F 51% 30.03 in 10.0 mi West 11.5 mph - N/A   Overcast
2:54 PM 42.1 °F 35.7 °F 28.9 °F 60% 30.03 in 10.0 mi WSW 11.5 mph 17.3 mph N/A   Overcast
3:54 PM 41.0 °F 33.9 °F 24.1 °F 51% 30.03 in 10.0 mi WNW 12.7 mph - 0.00 in   Unknown
4:54 PM 41.0 °F 33.9 °F 24.1 °F 51% 30.04 in 10.0 mi WNW 12.7 mph - 0.00 in   Overcast
5:54 PM 39.9 °F 35.1 °F 24.1 °F 53% 30.04 in 10.0 mi WNW 6.9 mph - N/A   Mostly Cloudy
6:54 PM 37.9 °F 32.7 °F 24.1 °F 57% 30.05 in 10.0 mi WNW 6.9 mph - N/A   Overcast
7:54 PM 37.0 °F 33.3 °F 24.1 °F 59% 30.06 in 10.0 mi WNW 4.6 mph - N/A   Overcast
8:54 PM 37.9 °F 32.1 °F 25.0 °F 60% 30.06 in 10.0 mi WNW 8.1 mph - N/A   Overcast
9:54 PM 37.0 °F 32.4 °F 26.1 °F 65% 30.06 in 10.0 mi West 5.8 mph - N/A   Overcast
10:54 PM 37.0 °F 32.4 °F 27.0 °F 67% 30.06 in 10.0 mi West 5.8 mph - N/A   Overcast
11:54 PM 37.0 °F 31.0 °F 28.0 °F 70% 30.06 in 10.0 mi West 8.1 mph - N/A   Overcast